• Join FlightAware (Why Join?)
  • Login
  • US Flag 
12:42PM EDT


 

Airport Tracker/Info


-or-


 

Live Flight TrackerFlight Track Log ✈ ASQ5740 ✈ 16-Nov-2013 ✈ KGSP - KIAD

Flight Track Log - Related Links

Times and Time Zones

All times are in EST time to prevent confusion due to time zone crossing. See the ASQ5740 flight status page for this flight to view local times or setup timezone preferences in your user account.

Time Position Orientation Groundspeed Altitude Reporting Facility
EST Latitude Longitude Course Direction KTS MPH feet Rate Location/Type
02:55PM 35.0400 -82.1261 28° Northeast 232 267 6,500  Level Atlanta Center
02:56PM 35.1100 -82.0736 32° Northeast 269 310 9,100 2,100 Climbing Atlanta Center
02:57PM 35.1864 -82.0208 29° Northeast 289 333 10,800 1,560 Climbing Atlanta Center
02:58PM 35.2472 -81.9253 52° Northeast 320 368 12,300 1,620 Climbing Atlanta Center
02:59PM 35.3722 -81.6954 68° East  Level Estimated
02:59PM 35.2997 -81.8197 59° Northeast 378 435 14,100  Level Atlanta Center
03:00PM 35.3689 -81.7261 48° Northeast 384 442 15,600 1,500 Climbing Atlanta Center
03:01PM 35.4458 -81.6092 51° Northeast 384 442 17,200 1,200 Climbing Atlanta Center
03:02PM 35.5086 -81.5156 51° Northeast 389 448 18,100 900 Climbing Atlanta Center
03:03PM 35.5817 -81.4136 49° Northeast 389 448 19,100 960 Climbing Atlanta Center
03:04PM 35.6522 -81.2939 54° Northeast 401 461 20,100 1,020 Climbing Atlanta Center
03:05PM 35.7225 -81.1739 54° Northeast 422 486 21,200 900 Climbing Atlanta Center
03:06PM 35.7947 -81.0614 52° Northeast 422 486 22,000 780 Climbing Atlanta Center
03:07PM 35.8711 -80.9406 52° Northeast 427 491 22,800 780 Climbing Atlanta Center
03:08PM 35.9433 -80.8275 52° Northeast 427 491 23,600 960 Climbing Atlanta Center
03:09PM 36.0144 -80.6836 59° Northeast 437 503 24,800 900 Climbing Atlanta Center
03:10PM 36.0669 -80.5400 66° East 442 509 25,400 600 Climbing Atlanta Center
03:11PM 36.1211 -80.3964 65° Northeast 442 509 26,100 1,020 Climbing Atlanta Center
03:14PM 36.2047 -80.0403 74° East 449 517 29,000 840 Climbing Washington Center
03:15PM 36.2781 -79.9233 52° Northeast 418 481 29,000  Level Washington Center
03:16PM 36.3556 -79.7986 52° Northeast 430 495 29,000  Level Washington Center
03:17PM 36.4311 -79.6658 55° Northeast 448 516 29,000  Level Washington Center
03:18PM 36.5106 -79.5356 53° Northeast 468 539 29,000 -300 Level Washington Center
03:19PM 36.5856 -79.4100 53° Northeast 484 557 28,500 -540 Descending Washington Center
03:20PM 36.6692 -79.2742 52° Northeast 490 564 28,000 -600 Descending Washington Center
03:21PM 36.7481 -79.1458 52° Northeast 483 556 27,400 -660 Descending Washington Center
03:22PM 36.8292 -79.0119 53° Northeast 454 522 26,700 -600 Descending Washington Center
03:23PM 36.9036 -78.8853 54° Northeast 447 514 26,200 -600 Descending Washington Center
03:24PM 36.9778 -78.7639 53° Northeast 447 514 25,600 -660 Descending Washington Center
03:25PM 37.0519 -78.6392 53° Northeast 447 514 25,000 -300 Descending Washington Center
03:26PM 37.1194 -78.5300 52° Northeast 442 509 25,000  Level Washington Center
03:27PM 37.1911 -78.4075 54° Northeast 442 509 25,000  Level Washington Center
03:28PM 37.2650 -78.2825 53° Northeast 447 514 25,000 -720 Level Washington Center
03:29PM 37.3694 -78.1817 37° Northeast 427 491 23,600 -1,380 Descending Washington Center
03:30PM 37.4503 -78.1111 35° Northeast 410 472 22,300 -840 Descending Washington Center
03:31PM 37.5458 -78.0303 34° Northeast 404 465 22,000 -180 Descending Washington Center
03:32PM 37.6372 -77.9467 36° Northeast 404 465 22,000 -720 Level Washington Center
03:33PM 37.7306 -77.8631 35° Northeast 404 465 20,600 -1,920 Descending Washington Center
03:34PM 37.8197 -77.7817 36° Northeast 404 465 18,300 -2,220 Descending Washington Center
03:35PM 37.9022 -77.7050 36° Northeast 385 443 16,300 -2,160 Descending Washington Center
03:36PM 37.9828 -77.6336 35° Northeast 364 419 14,000 -2,220 Descending Washington Center
03:37PM 38.0697 -77.5514 37° Northeast 353 406 11,800 -2,040 Descending Washington Center
03:38PM 38.1500 -77.4769 36° Northeast 353 406 10,000 -960 Descending Washington Center
03:39PM 38.2239 -77.4233 30° Northeast 336 387 10,000  Level Washington Center
03:40PM 38.2975 -77.3775 26° Northeast 309 356 10,000 -600 Level Washington Center
03:41PM 38.3647 -77.3553 15° North 275 316 8,800 -1,260 Descending Washington Center
03:42PM 38.4333 -77.3597 357° North 249 287 7,500 -1,380 Descending Washington Center
03:43PM 38.4981 -77.3639 357° North 238 274 6,100 -1,320 Descending Washington Center
03:44PM 38.5625 -77.3653 359° North 233 268 5,000 -960 Descending Washington Center
03:45PM 38.6292 -77.3669 359° North 233 268 4,300 -540 Descending Washington Center
03:46PM 38.6939 -77.3631 North 233 268 4,000 -180 Descending Washington Center
03:47PM 38.7667 -77.3500 North 240 276 4,000  Level Potomac TRACON
03:48PM 38.8333 -77.3500 360° North 241 277 4,000  Level Potomac TRACON
03:49PM 38.9000 -77.3500 360° North 240 276 4,000  Level Potomac TRACON
03:50PM 38.9667 -77.3500 360° North 238 274 4,000  Level Potomac TRACON
03:51PM 39.0333 -77.3500 360° North 227 261 4,000  Level Potomac TRACON
03:52PM 39.0833 -77.3500 360° North 208 239 4,000  Level Potomac TRACON
03:53PM 39.1500 -77.3500 360° North 213 245 4,000 -180 Level Potomac TRACON
03:54PM 39.2167 -77.3500 360° North 217 250 3,700 -540 Descending Potomac TRACON
03:55PM 39.2667 -77.3667 346° North 220 253 3,000 -360 Descending Potomac TRACON
03:56PM 39.2500 -77.4167 247° West 198 228 3,000  Level Potomac TRACON
03:57PM 39.2167 -77.4333 201° Southwest 159 183 3,000  Level Potomac TRACON
03:58PM 39.1667 -77.4333 180° South 163 188 3,000  Level Potomac TRACON
03:59PM 39.1167 -77.4333 180° South 162 186 3,000 -120 Level Potomac TRACON
04:00PM 39.0833 -77.4333 180° South 165 190 2,800 -600 Descending Potomac TRACON
04:00PM 39.0333 -77.4333 180° South 165 190 1,900 -900 Descending Potomac TRACON
04:01PM 39.0000 -77.4333 180° South 143 165 1,100 -840 Descending Potomac TRACON
04:03PM 38.9474 -77.4599 195° South  Level Estimated